Home > Weather > Addis Ababa > Past weeks

Flag for Ethiopia Past Weather in Addis Ababa, Ethiopia — Yesterday and Last 2 Weeks

Now
63 °F

Passing clouds.


Feels Like: 63 °F
Forecast: 52 / 66 °F
Wind: 7 mph from West

Location: Addis Ababa Airport

Current Time: Jun 29, 2016 at 7:31:18 PM

Latest Report: Jun 29, 2016 at 7:00 PM


Visibility: N/A

Pressure: 30.27 "Hg (22.94 "Hg at 2354m altitude)

Humidity: 73%

Dew Point: 54 °F

Location of Addis AbabaLocation

Past Weather in Addis Ababa — Graph

°F

Addis Ababa Temperature Yesterday

Maximum temperature yesterday: 68 °F (at 12:00 PM)
Minimum temperature yesterday: 55 °F (at 6:00 AM)
Average temperature yesterday: 60 °F

High & Low Weather Summary for the Past Weeks

 TemperatureHumidityPressure
High73 °F (Jun 15, 2:00 PM)94% (Jun 18, 5:00 AM)30.45 "Hg (Jun 18, 5:00 AM)
Low52 °F (Jun 21, 6:00 AM)41% (Jun 15, 2:00 PM)30.21 "Hg (Jun 24, 5:00 PM)
Average60 °F76%30.32 "Hg
* Reported Jun 14 2:00 PM — Jun 29 2:00 PM, Addis Ababa, Weather by CustomWeather, © 2016

Note: Actual official high and low records may vary slightly from our data, if they occured in-between our weather recording intervals... More about our weather records

Advertising

Addis Ababa Weather History for the Previous 24 Hours

Scroll right to see more
 ConditionsComfort  
Time TempWeatherWind HumidityBarometerVisibility
2:00 PM
Wed, Jun 29
68 °FPartly sunny.7 mph60%30.30 "HgN/A
12:00 PM68 °FPartly sunny.8 mph60%30.36 "HgN/A
10:00 AM64 °FPartly sunny.7 mph68%30.39 "Hg6 mi
9:00 AM59 °FFog.5 mph82%30.39 "Hg6 mi
8:00 AM57 °FPartly sunny.2 mph88%30.39 "HgN/A
7:00 AM55 °FPartly sunny.2 mph88%30.33 "HgN/A
6:00 AM55 °FPassing clouds.2 mph88%30.33 "HgN/A
5:00 AM57 °FPartly cloudy.5 mph72%30.30 "HgN/A
4:00 AM57 °FPartly cloudy.7 mph72%30.30 "HgN/A
3:00 AM57 °FPassing clouds.5 mph72%30.30 "HgN/A
12:00 AM55 °FPassing clouds.7 mph82%30.30 "HgN/A
11:00 PM
Tue, Jun 28
55 °FPartly cloudy.7 mph82%30.30 "HgN/A
10:00 PM57 °FPassing clouds.16 mph72%30.30 "HgN/A
9:00 PM59 °FLight rain. Passing clouds.7 mph72%30.33 "Hg5 mi
8:00 PM59 °FPassing clouds.12 mph72%30.30 "HgN/A
7:00 PM61 °FRain. Passing clouds.5 mph83%30.27 "Hg5 mi
Weather by CustomWeather, © 2016

See weather overviewHow to use our weather pages